Погода в Молочном

Россия / Республика Крым     45°11′49″N   33°13′29″E
темп.,
°C
ветер,
м/с
пор.,
м/с
влажн.,
%
обл.,
%
осадки,
мм/ч
давл.,
гПа
погр.,
м
1 декабря, ср
ср100:00+5сз91368100 1.3 1003887
03:00+5зсз8136025 1.3 1006735
06:00+6зюз6106399 0.1 1006690
09:00+7зюз9135885 0.1 1006876
12:00+8зюз121460100 0.3 10061888
15:00+8з101261100 0.5 10061665
18:00+7зсз7116223 0.0 1007674
21:00+7зсз7116446 0.1 1009661
2 декабря, чт
чт200:00+6зсз710635 0.1 1011607
03:00+6зсз4569100 0.1 1013301
06:00+6зюз336942 0.0 1013356
09:00+8юз69686 0.0 1014430
12:00+11ююз810646 0.0 10141199
15:00+11ююз9106715 0.0 10131016
18:00+11ююз10138011 0.1 1013861
21:00+11ю12167421 0.1 1013725
3 декабря, пт
пт300:00+11ю111672100 0.0 1012660
03:00+12ю10156696 0.0 1012550
06:00+11ю111671100 0.0 1011586
09:00+12ю1217710 0.0 1011662
12:00+13ююз1116712 0.0 10111112
15:00+13ююз11167560 0.0 1011999
18:00+13ююз10168096 0.0 1011590
21:00+13ююз10178277 0.0 1012577
4 декабря, сб
сб400:00+12ююз91683100 0.7 1012555
03:00+13ююз91483100 1.3 1012483
06:00+12ююз61285100 0.5 1011347
09:00+12ю4683100 0.6 1011122
12:00+14ююз61175100 0.0 1010548
15:00+13юз4579100 0.0 1008286
18:00+12ююз1189100 0.1 100815
21:00+12ю2384100 0.1 100777
5 декабря, вс
вс500:00+11ю5985100 0.3 1006404
03:00+12ю71092100 0.8 1005447
06:00+12ююз71195100 0.1 1004584
09:00+10зюз7991100 0.4 1005403
12:00+10з7882100 0.0 1006611
15:00+9з7881100 0.0 1007703
18:00+9з6777100 0.1 1008908
21:00+9з6881100 0.2 1009774